Zurück zum Katalog

METEOR 2-5 DEB

AktivPO
NORAD 45510·DEBRIS·🇷🇺 Russia

Gestartet Oct 31, 1979 von Plesetsk Cosmodrome

Loading…

Nächste Überflüge (nächste 24 Stunden)

TLE

AktuellSource: Space-Track

Epoche: Sep 11, 2026, 07:40 UTC

1 45510U 79095CS  26254.31995968  .00002010  00000-0  86183-3 0  9996
2 45510  81.1874 115.8846 0013876 328.7782  31.2571 14.24479385454752

Verfolge METEOR 2-5 DEB in Echtzeit mit AllMySat

Download on the App Store